Regional Weather Roundup
Issued by NWS

Home | Current Version | Previous Version | Text Only | Print | Product List | Glossary Off
Versions: 1 2 3 4 5 6 7 8 9 10 11 12 13 14 15 16 17 18 19 20 21 22 23 24 25 26 27 28 29 30 31 32 33 34 35 36 37 38 39 40 41 42 43 44 45 46 47 48 49 50

000
ASUS43 KLSX 022059
RWRMO

WEATHER SUMMARY FOR MISSOURI
NATIONAL WEATHER SERVICE SPRINGFIELD MO
400 PM CDT TUE SEP 02 2014

NOTE: "FAIR" INDICATES FEW OR NO CLOUDS BELOW 12,000 FEET WITH NO
       SIGNIFICANT WEATHER AND/OR OBSTRUCTIONS TO VISIBILITY.
       CURRENT SKY AND/OR WEATHER CONDITIONS ARE NOT AVAILABLE FOR
       CHILLICOTHE AND FARMINGTON.

MOZ001>031-035>038-043-044-053-054-022200-
...NORTHERN AND WESTERN MISSOURI...

CITY           SKY/WX    TMP DP  RH WIND       PRES   REMARKS
KANSAS CTY INT MOSUNNY   79  68  69 S8        29.97F
KANSAS C DTWN  SUNNY     83  66  56 SW7       29.96F
LEE`S SUMMIT   MOSUNNY   82  69  64 W6        29.98F
ST JOSEPH      SUNNY     84  65  52 NW6       29.96F
KIRKSVILLE     MOSUNNY   82  63  52 W8        29.97F

$$
MOZ066>068-077>081-088>096-101>105-022200-
...SOUTHWEST MISSOURI...

CITY           SKY/WX    TMP DP  RH WIND       PRES   REMARKS
SPRINGFIELD    PTSUNNY   79  64  60 NW6       29.98F
JOPLIN         PTSUNNY   80  66  62 W8        29.97F

$$
MOZ032>034-039>042-045>050-055>058-069>072-022200-
...CENTRAL MISSOURI...

CITY           SKY/WX    TMP DP  RH WIND       PRES   REMARKS
COLUMBIA       PTSUNNY   81  71  71 W6        29.97F
JEFFERSON CITY CLOUDY    82  70  66 NW7       29.96F
ROLLA          CLOUDY    77  67  71 NW9       29.98F
SEDALIA        PTSUNNY   79  70  74 W7        29.98F
WHITEMAN AFB   PTSUNNY   79  70  73 W9        29.98F
OSAGE BEACH    PTSUNNY   81  66  61 W8        29.97F

$$
MOZ051-052-059>065-022200-
...EAST CENTRAL MISSOURI...

CITY           SKY/WX    TMP DP  RH WIND       PRES   REMARKS
ST LOUIS INTL  PTSUNNY   83  68  60 NW9       29.96F
SPIRIT OF STL  PTSUNNY   80  70  71 NW7       29.95F
ST CHARLES     PTSUNNY   82  67  60 NW8       29.94F

$$
MOZ072>076-082>087-097>100-106>115-022200-
...SOUTH CENTRAL AND SOUTHEAST MISSOURI...

CITY           SKY/WX    TMP DP  RH WIND       PRES   REMARKS
CAPE GIRARDEAU CLOUDY    82  68  62 NW7       29.93F
FARMINGTON     CLOUDY    77  68  73 NW9       29.99F
POPLAR BLUFF   CLOUDY    82  63  52 N3        29.93F
WEST PLAINS    CLOUDY    78  64  61 NW8       29.98F

$$


USA.gov is the U.S. government's official web portal to all federal, state and local government web resources and services.